Warning: Javascript must be enabled to use all the features on this page!


Page Loading - Please Wait...

Click to hideNews Bulletins

Peak Streamflow for the Nation

USGS 04015330 KNIFE RIVER NEAR TWO HARBORS, MN

Lake County, Minnesota
Hydrologic Unit Code 04010102
Latitude  46°56'49", Longitude  91°47'32" NAD27
Drainage area 83.6  square miles
Output formats
Table
Graph
Tab-separated file
peakfq (watstore) format
Reselect output format
Water
Year
Date Gage
Height
(feet)
Stream-
flow
(cfs)
1975 1975-04-23 7.52 2,860
1976 1976-04-06 5.932 1,520
1977 1977-09-24 8.94 4,320
1978 1978-05-29 8.43 3,750
1979 1979-05-10 11.16 7,440
1980 1980-09-04 8.09 3,450
1981 1981-04-23 7.24 2,430
1982 1982-07-03 8.03 3,270
1983 1982-11-21 7.35 2,580
1984 1984-06-10 7.29 2,630
1985 1984-10-19 7.15 2,400
1986 1986-06-10 8.04 3,380
1987 1987-05-18 7.13 2,450
1988 1988-08-13 7.21 2,510
1989 1989-04-16 6.032 1,430
1990 1990-04-30 6.14 1,580
1991 1991-06-29 9.82 5,440
1992 1992-04-21 7.842 3,140
1993 1993-07-04 9.53 4,580
1994 1994-04-15 6.94 2,000
1995 1995-08-25 8.19 3,510
1996 1996-09-27 7.53 2,810
1997 1997-06-24 10.29 5,780
1998 1998-03-29 6.572 1,950
1999 1999-07-05 12.14 9,100
2000 2000-05-08 6.462 2,050
2001 2001-04-23 7.662 3,240
2002 2002-07-08 6.79 2,390
2003 2003-04-10 6.09 1,780
2004 2004-05-31 6.29 1,790
2005 2005-06-14 6.252 1,760
2006 2006-03-31 5.712 1,410
2007 2007-06-18 6.142 1,760
2008 2008-06-06 7.17 2,480
2009 2009-03-25   1,2001,2
2010 2010-03-12 5.83 1,490
2011 2011-06-22 6.92 2,270
2012 2012-06-20 12.81 25,500
2013 2013-04-30 6.03 3,060
2014 2014-04-11 5.542 2,250
2015 2015-09-24 4.732 1,220
2016 2016-06-13 5.742 2,560
2017 2016-11-29 5.112 1,8702
2018 2018-06-18 32.636 4,110
2019 2018-10-10 29.952 1,780
2020 2020-07-19 30.362 2,070
2021 2021-04-12 29.432 1,410
?
  Peak Gage-Height Qualification Codes.
?
  Peak Streamflow Qualification Codes.